Location: Tel Aviv
(32.0670°N, 34.7670°E)
Time: 03:07:21
(UTC+03:00)

Tiros 1 - Pass Details

Date: 21 January 2022
Orbit: 629 x 663 km, 48.4° (Epoch: 26 May)

Event Time Altitude Azimuth Distance (km) Brightness Sun altitude
Rises 00:41:32 0° 267° (W) 2,986 - -73.6°
Reaches altitude 10° 00:44:19 10° 282° (WNW) 2,074 - -73.2°
Maximum altitude 00:48:07 23° 334° (NNW) 1,401 - -72.6°
Drops below altitude 10° 00:51:54 10° 27° (NNE) 2,066 - -72.0°
Sets 00:54:40 0° 42° (NE) 2,973 - -71.5°
